SCP
0 0 0 0 0 0 0 0 0 0 0 0 0 0 0 0 0 0 0 0 0 0 0 0 0 0 0 0 0 0 0 0 0 0 0 0 0 0 0 0 0 0 0
0 0 0 0 0 0 0 0 0 0 0 0 0 0 0 0 0 0 0 0 0 0 0 0 0 0 0 0 0 0 0 0 0 0 0 0 0 0 0 0 0 0 0
0 0 0 0 0 0 0 0 0 0 0 0 0 0 0 0 0 0 0 0 0 -0 0 0 0 0 0 0 0 0 0 0 0 0 0 0 0 0 0 0 0 0 0
0 0 0 0 0 0 0 0 0 0 0 0 0 0 0 0 0 0 0 0 0 -0 -0 0 0 0 0 0 0 0 0 0 0 0 0 0 0 0 0 0 0 0 0
0 0 0 0 0 0 0 0 0 0 0 0 0 0 0 0 0 0 0 0 0 -0 -0 -0 0 0 0 0 0 0 0 0 0 0 0 0 0 0 0 0 0 0 0
0 0 0 0 0 0 0 0 0 0 0 0 0 0 0 0 0 0 0 0 0 -0 -0 -0 -0 0 0 0 0 0 0 0 0 0 0 0 0 0 0 0 0 0 0
0 0 0 0 0 0 0 0 0 0 0 0 0 0 0 0 0 0 0 0 0 0 -0 -0 -0 0 0 0 0 0 0 0 0 0 0 0 0 0 0 0 0 0 0
0 0 0 0 0 0 0 0 0 0 0 0 0 0 0 0 -0 -0 0 0 0 0 -0 -0 -0 0 0 0 0 0 0 0 0 0 0 0 0 0 0 0 0 0 0
0 0 0 0 0 0 0 0 0 0 0 0 0 0 0 0 0 -0 -0 -0 0 -0 -0 -0 -0 0 0 0 0 0 0 0 0 0 0 0 0 0 0 0 0 0 0
0 0 0 0 0 0 0 0 0 0 0 0 0 0 0 0 0 0 -0 -0 -0 -0 -0 -0 -0 0 0 0 0 0 0 0 0 0 0 0 0 0 0 0 0 0 0
0 0 0 0 0 0 0 0 0 0 0 0 0 0 0 0 0 0 0 -0 -0 -0 -0 -0 0 0 0 0 0 0 0 0 0 0 0 0 0 0 0 0 0 0 0
0 0 0 0 0 0 0 0 0 0 0 0 0 0 0 0 0 0 0 0 -0 -0 0 0 0 0 0 0 0 0 0 0 0 0 0 0 0 0 0 0 0 0 0
0 0 0 0 0 0 0 0 0 0 0 0 0 0 0 0 0 0 0 0 0 0 0 0 0 0 0 0 0 0 0 0 0 0 0 0 0 0 0 0 0 0 0
0 0 0 0 0 0 0 0 0 0 0 0 0 0 0 0 0 0 0 0 0 0 0 0 0 -0 -0 0 0 0 0 0 0 0 0 0 0 0 0 0 0 0 0
0 0 0 0 0 0 0 0 0 0 0 0 0 0 0 0 0 0 0 0 0 0 0 0 0 0 0 0 0 0 0 0 0 0 0 0 0 0 0 0 0 0 0
0 0 0 0 0 0 0 0 0 0 0 0 0 0 0 0 0 0 0 0 0 0 0 0 0 0 0 0 0 0 0 0 0 0 0 0 0 0 0 0 0 0 0
0 0 0 0 0 0 0 0 0 0 0 0 0 0 0 0 0 0 0 0 0 0 0 0 0 0 0 0 0 -0 0 0 0 0 0 0 0 0 0 0 0 0 0
0 0 0 0 0 0 0 0 0 0 0 0 0 0 0 0 0 0 0 0 0 0 0 0 0 0 0 0 0 -0 -0 0 0 0 0 0 0 0 0 0 0 0 0
0 0 0 0 0 0 0 0 0 0 0 0 0 0 0 0 0 0 0 0 0 0 0 0 0 0 0 0 0 0 -0 -0 0 0 0 0 0 0 0 0 0 0 0
0 0 0 0 0 0 0 0 0 0 0 0 0 0 0 0 0 0 0 0 0 0 0 0 0 0 0 0 0 0 0 -0 -0 -0 0 0 0 0 0 0 0 0 0
0 0 0 0 0 0 0 0 0 0 0 0 0 0 0 0 0 0 0 0 0 0 0 0 0 0 0 0 0 0 0 -0 -0 -0 -0 0 0 0 0 0 0 0 0
0 0 0 0 0 0 0 0 0 0 0 0 0 0 0 0 0 0 0 0 0 0 0 0 0 0 0 0 0 0 0 0 -0 -0 -0 0 0 0 0 0 0 0 0
0 0 0 0 0 0 0 0 0 0 0 0 0 0 0 0 0 0 0 0 0 0 0 0 0 0 0 0 0 0 0 0 0 0 0 -0 0 0 0 0 0 0 0
0 0 0 0 0 0 0 0 0 0 0 0 0 0 0 0 0 0 0 0 0 0 0 0 0 0 0 0 0 0 0 0 0 0 0 0 0 0 0 0 0 0 0
0 0 0 0 0 0 0 0 0 0 0 0 0 0 0 0 0 0 0 0 0 0 0 0 0 0 0 0 0 0 0 0 0 0 0 0 0 0 0 0 0 0 0
0 0 0 0 0 0 0 0 0 0 0 0 0 0 0 0 0 0 0 0 0 0 0 0 0 0 0 0 0 0 0 0 0 0 0 0 0 0 0 0 0 0 0
Wind_Speed
2 2 2 2 2 2 2 1 1 1 1 1 1 1 1 1 2 2 1 2 1 1 1 1 1 2 0 1 1 1 2 2 3 4 4 4 4 5 5 6 6 6 6
2 2 2 2 2 2 2 1 1 1 0 0 0 1 1 0 1 3 2 1 1 1 1 1 1 2 2 1 1 1 2 2 3 3 4 4 4 5 5 5 5 6 6
2 2 2 2 2 2 2 1 1 1 0 0 1 1 1 1 1 2 2 2 1 1 1 1 2 2 3 2 2 2 2 3 3 4 4 5 5 6 5 5 6 6 7
2 2 2 2 2 2 2 1 1 1 0 0 1 1 1 1 1 1 2 2 2 1 1 1 2 3 4 4 4 3 3 3 4 4 5 5 6 6 6 6 6 6 6
2 2 2 2 2 2 1 1 1 1 1 0 1 1 1 1 1 1 2 2 2 2 2 2 2 2 4 5 5 5 4 4 5 5 6 6 6 7 7 7 7 6 7
2 2 2 3 2 2 2 1 1 1 1 1 1 1 2 2 2 1 2 2 2 2 2 2 2 1 3 5 5 5 6 6 6 6 6 7 7 7 7 7 6 7 7
2 3 3 3 3 3 3 3 2 1 1 0 0 1 2 2 2 1 1 1 2 2 1 1 1 1 1 3 5 6 7 8 8 8 8 8 8 8 7 7 7 7 8
2 3 3 3 3 3 3 3 2 2 1 1 1 0 1 2 1 1 1 1 1 1 1 1 1 1 1 1 2 6 7 8 9 9 9 9 9 9 8 8 8 8 8
3 3 3 3 3 3 3 4 4 3 2 2 1 2 1 2 2 2 2 2 1 1 2 1 2 2 1 1 1 4 7 9 9 10 10 10 10 9 9 8 8 9 9
3 3 3 3 3 3 4 4 4 3 3 3 2 2 2 1 1 2 2 2 2 2 1 2 2 2 2 1 1 4 6 8 10 10 11 11 11 10 9 9 9 9 9
3 3 3 3 3 3 4 4 3 4 3 3 3 2 2 1 2 2 3 3 2 2 2 2 2 2 2 2 1 3 6 8 9 10 10 11 11 11 10 9 9 9 9
2 3 2 2 3 3 3 3 4 4 4 3 3 2 2 2 2 2 3 3 3 2 2 2 2 2 1 1 2 4 6 7 8 9 9 10 10 11 10 10 10 10 10
2 3 3 3 3 3 3 3 3 4 4 4 4 3 2 2 2 2 2 3 3 3 2 2 2 2 1 1 2 5 6 7 8 8 9 10 10 10 10 11 10 10 10
3 4 3 3 3 3 3 3 3 3 3 4 4 3 2 2 2 2 2 2 3 4 3 3 1 1 1 1 2 4 4 8 9 9 10 10 9 10 10 10 10 10 10
3 4 4 3 3 4 4 4 3 4 3 4 4 4 3 2 2 2 1 2 3 4 5 3 1 1 1 1 3 3 4 8 10 10 10 10 9 10 10 10 10 10 9
4 4 4 4 4 4 4 4 3 3 3 3 3 4 3 2 2 2 2 2 2 3 4 3 2 2 2 3 4 3 4 9 10 11 11 10 10 10 10 10 9 9 9
4 5 5 4 4 4 4 4 4 4 4 4 3 4 4 3 3 3 2 2 2 2 4 4 3 2 2 3 4 3 4 4 5 11 11 10 10 9 9 9 8 9 9
4 5 4 4 4 4 4 5 5 4 5 4 4 4 4 3 3 3 3 3 3 3 3 5 4 3 3 4 4 5 4 4 5 9 10 10 9 10 9 8 8 9 9
4 4 4 5 5 4 4 4 4 4 4 4 4 5 4 4 4 3 3 3 2 2 2 3 5 4 3 3 4 4 5 4 5 7 8 8 9 9 8 9 9 8 8
3 4 4 4 4 4 4 4 4 4 3 3 3 4 4 4 4 3 3 3 2 2 3 3 4 4 3 3 2 4 4 4 4 4 5 6 7 8 8 9 9 9 9
3 3 3 3 3 3 3 3 3 3 3 3 3 3 3 3 4 4 3 3 2 2 3 3 4 3 3 3 3 3 4 5 4 3 3 4 4 3 4 6 8 9 9
2 3 3 3 3 3 4 5 3 3 3 3 3 2 2 3 3 5 5 5 5 4 4 4 4 4 5 4 4 3 3 4 5 2 3 5 3 3 3 3 7 9 9
2 2 3 3 2 3 5 5 4 2 2 2 2 2 1 2 2 2 3 5 5 7 7 5 5 5 5 4 4 4 4 4 5 4 3 4 2 3 3 4 8 8 9
1 1 2 2 2 2 3 3 3 2 2 2 1 2 2 2 2 2 2 2 3 4 5 4 4 5 4 4 4 4 4 4 4 3 2 3 2 3 4 3 6 7 8
1 1 1 1 2 2 3 2 2 2 1 1 1 1 1 1 3 2 1 2 3 4 5 6 7 6 7 7 5 2 2 3 4 3 1 2 2 3 3 3 4 8 9
1 1 1 1 2 2 2 2 1 1 1 0 0 1 2 2 2 2 1 1 3 4 3 3 4 4 4 5 5 3 3 3 3 3 2 1 2 2 3 3 3 4 5
Wind_Direction
157 153 159 157 170 165 164 207 209 208 224 230 227 269 269 148 143 135 128 126 138 245 268 338 335 347 1 41 41 35 23 11 8 4 360 351 346 344 340 335 333 332 328
161 162 163 165 173 163 176 198 198 188 215 333 322 310 307 261 156 144 153 136 122 188 249 304 308 336 317 320 316 336 348 351 347 344 345 339 333 333 336 337 338 337 330
164 166 164 170 176 172 181 192 181 137 137 299 290 297 305 302 174 154 160 165 157 158 227 260 287 300 314 295 296 299 312 324 327 327 326 328 326 324 324 323 326 331 329
175 165 159 174 180 174 178 180 166 153 190 236 280 273 265 247 232 178 171 172 171 177 191 231 274 286 301 297 294 294 296 306 311 314 314 314 316 319 318 318 317 321 320
186 171 169 180 170 173 183 186 158 159 186 253 278 269 256 231 233 221 197 181 176 172 184 203 238 283 286 304 294 291 290 295 301 304 304 305 307 308 308 308 308 310 311
198 185 177 181 172 173 185 177 163 171 186 217 286 295 271 239 225 214 209 194 180 184 193 204 213 250 280 296 303 290 289 291 296 296 297 297 298 299 302 303 303 303 303
208 199 186 183 182 183 187 184 171 177 195 202 356 307 284 246 216 216 202 186 192 190 194 209 210 232 269 290 305 300 293 291 293 294 293 294 293 292 297 300 299 299 300
206 208 192 186 187 187 185 185 175 186 203 168 146 330 301 299 300 259 212 201 201 199 223 225 232 234 231 230 301 311 307 299 297 297 295 294 293 290 292 297 296 298 298
213 203 200 188 191 190 197 196 188 190 194 207 185 167 182 237 306 269 235 209 215 229 234 230 230 246 240 225 264 295 307 302 302 302 299 295 292 290 288 291 293 295 295
222 205 197 195 193 196 201 208 196 195 187 198 217 225 220 206 206 285 280 237 225 230 235 261 252 248 234 219 247 297 300 304 299 301 303 301 296 290 288 291 292 294 296
221 209 201 199 202 204 207 205 203 198 198 199 203 210 241 266 237 227 272 276 276 253 243 250 255 253 242 226 234 294 296 301 302 299 302 302 302 297 293 294 293 294 296
204 206 208 203 210 207 204 207 208 203 203 205 208 205 203 207 222 227 255 268 272 269 256 249 242 238 239 239 277 299 296 303 301 297 300 302 302 302 300 296 293 294 294
205 207 211 208 211 215 207 201 205 208 206 205 205 210 216 224 223 234 244 273 286 284 271 259 232 217 236 250 270 298 292 297 295 294 299 299 298 298 300 300 295 291 291
211 204 203 209 211 209 217 207 207 213 210 208 209 206 211 223 224 226 223 243 287 290 275 258 261 208 227 240 267 296 287 292 295 294 293 293 293 294 294 298 295 292 291
213 206 204 207 211 206 207 207 209 213 211 209 205 208 214 220 222 226 226 211 223 270 282 267 266 253 259 261 273 272 271 290 297 296 291 288 288 289 290 293 294 296 295
210 205 207 208 208 211 208 202 204 211 210 216 206 206 217 215 217 219 223 235 232 238 267 281 276 288 289 296 289 276 275 295 292 291 289 285 286 285 287 289 290 295 294
211 209 208 209 210 210 207 203 209 208 211 220 215 209 220 213 211 220 223 228 241 236 259 283 291 288 274 277 285 276 273 272 279 286 286 287 286 285 286 286 289 290 293
219 215 207 211 218 214 208 207 209 211 210 215 216 209 217 216 218 222 221 229 238 237 243 272 288 291 274 269 276 281 284 282 276 286 285 287 288 286 287 286 287 291 293
225 223 212 213 217 210 208 209 213 209 208 215 219 214 212 209 226 229 223 230 243 257 254 258 276 285 285 286 291 291 288 279 283 287 288 287 286 288 291 292 292 293 295
221 227 220 219 218 209 206 209 215 212 210 214 220 220 219 213 222 229 234 228 233 249 258 259 270 282 282 289 291 287 293 285 285 289 291 292 287 286 291 296 294 294 296
230 226 222 224 210 201 204 207 209 206 204 212 219 222 221 222 235 242 248 238 233 244 257 262 268 277 277 286 282 282 287 297 287 277 293 286 280 269 277 290 293 295 297
237 237 227 214 208 215 211 215 214 202 200 204 218 220 207 215 232 245 258 260 251 243 245 253 261 262 267 274 279 281 285 299 295 293 295 289 282 277 278 272 297 303 301
226 241 226 204 206 206 213 213 214 184 182 193 207 207 220 226 256 248 260 270 272 270 263 258 260 263 265 271 280 276 276 279 274 286 297 283 285 284 290 297 301 304 307
199 231 234 199 182 203 215 207 185 157 177 190 207 221 204 212 239 255 260 283 287 283 279 273 259 263 265 264 263 268 267 279 278 283 283 278 294 293 303 299 302 310 313
193 218 236 198 180 198 208 197 182 147 161 182 235 247 219 216 242 269 273 287 297 297 301 290 282 275 277 278 274 270 281 290 287 287 280 267 288 311 309 302 315 321 318
199 208 237 211 184 183 187 174 158 137 146 203 257 260 245 252 248 281 270 256 280 292 311 316 304 293 285 278 275 251 241 259 277 279 263 258 277 329 317 303 313 323 322